STAR ONE C4 (40733 NORAD) Tracking and Keplerian Element Data

This shows tracking and keplerian element data for the satellite.

Feedback or suggestion? Click here.




ElementValue
Catalog40733
NameSTAR ONE C4
Epoch Orbit1859
Epoch Day223.23833678
Epoch Year2020
RAAN314.9269
Inclination0.0371
Eccentricity0.0001268
Argument of Perigee182.5848
Mean Anonmoly197.4598
Mean Motion1.00273079
Decay Rate-2.67E-06
L11 40733U 15034B 20223.23833678 -.00000267 00000-0 00000+0 0 9994
L22 40733 0.0371 314.9269 0001268 182.5848 197.4598 1.00273079 18592

Live tracking and technical data element details for STAR ONE C4 (NORAD 40733). STAR ONE C4 can be tracked NOW for your location showing map with azimuth and elevation plus other details from your city location.

Track the satellite on the map from your city or location and see movement details for azimuth, elevation, latitude, longitude, range, height, and movement on the map or in text.







IsCatalogInMostPopularTable: catalog: 40733, numindb: 584
Update: records affected: 1



GetName: 40733 STAR ONE C4

Hit Count: updated at: Mon, 10 Aug 2020 22:23:33 GMT